FW3959 Weather Reports


Display with metric or nautical units.
time (UTC)temp
F
wind
direction
speed
MPH
gust
MPH
rain 1hr
in
rain 24hr
in
rain mn
in
humidity
%
barometer
mb
20260505061507 43 213 14.0 19.0 0.00 0.00 0.00 86 1009.0
20260505060006 43 217 14.0 20.0 0.00 0.00 0.00 86 1008.7
20260505054505 43 215 12.0 17.0 0.00 0.00 0.00 86 1008.5
20260505053003 43 204 13.0 18.0 0.00 0.00 0.00 86 1008.4
20260505051601 44 209 11.0 17.0 0.00 0.00 0.00 85 1008.2
20260505041556 42 240 13.0 17.0 0.00 0.00 0.00 85 1007.0
20260505040053 43 239 13.0 19.0 0.00 0.00 0.00 84 1006.8
20260505034545 44 226 16.0 24.0 0.00 0.00 0.00 82 1006.9
20260505033043 44 216 16.0 20.0 0.00 0.00 0.00 83 1006.7
20260505031548 44 220 15.0 19.0 0.00 0.00 0.00 82 1006.5
20260505030036 43 219 12.0 16.0 0.00 0.00 0.00 83 1006.4
20260505024538 44 217 10.0 15.0 0.00 0.00 0.00 80 1006.3
20260505023037 46 230 11.0 18.0 0.00 0.00 0.00 78 1006.1
20260505021535 45 226 13.0 19.0 0.00 0.00 0.00 80 1005.8
20260505020030 45 209 12.0 15.0 0.00 0.00 0.00 78 1005.7
20260505014539 45 209 11.0 17.0 0.00 0.00 0.00 76 1005.7
20260505013028 44 234 11.0 14.0 0.00 0.00 0.00 78 1005.7
20260505011528 45 236 12.0 19.0 0.00 0.00 0.00 75 1005.5
20260505010027 47 224 18.0 23.0 0.00 0.00 0.00 70 1005.5
20260505004528 49 216 16.0 21.0 0.00 0.00 0.00 71 1005.2
20260505003026 48 206 20.0 26.0 0.00 0.00 0.00 72 1005.4
20260505001522 49 207 21.0 28.0 0.00 0.00 0.00 67 1005.0
20260505000020 49 199 19.0 27.0 0.00 0.00 0.00 64 1004.6
20260504234519 46 219 17.0 24.0 0.00 0.00 0.00 69 1004.3
20260504233016 48 230 18.0 26.0 0.00 0.00 0.00 63 1003.8
20260504231515 46 261 16.0 23.0 0.00 0.00 0.00 69 1003.7
20260504230014 46 253 11.0 20.0 0.00 0.00 0.00 68 1003.6
20260504224514 48 202 13.0 20.0 0.00 0.00 0.00 66 1003.5
20260504223024 48 228 16.0 23.0 0.00 0.00 0.00 65 1003.6
20260504221509 48 219 18.0 25.0 0.00 0.00 0.00 66 1003.6
20260504220013 48 203 16.0 24.0 0.00 0.00 0.00 67 1003.2
20260504214507 48 223 17.0 24.0 0.00 0.00 0.00 66 1003.0
20260504213014 48 230 18.0 28.0 0.00 0.00 0.00 66 1002.9
20260504211506 49 224 19.0 27.0 0.00 0.00 0.00 67 1002.7
20260504210001 49 226 18.0 28.0 0.00 0.00 0.00 68 1002.6
20260504204559 49 228 20.0 27.0 0.00 0.00 0.00 67 1002.4
20260504203111 47 263 21.0 31.0 0.00 0.00 0.00 68 1002.2
20260504201601 50 267 25.0 47.0 0.00 0.00 0.00 57 1001.9
20260504200115 46 230 21.0 31.0 0.00 0.00 0.00 69 1001.8
20260504194556 50 258 26.0 40.0 0.00 0.00 0.00 57 1001.6
20260504193054 49 249 29.0 41.0 0.00 0.00 0.00 60 1001.3
20260504191556 49 266 30.0 39.0 0.00 0.00 0.00 63 1001.1
20260504190047 49 257 32.0 40.0 0.00 0.00 0.00 65 1000.8
20260504184544 48 228 30.0 37.0 0.00 0.01 0.00 69 1000.4
20260504183043 48 246 29.0 44.0 0.00 0.01 0.00 71 1000.5
20260504181544 46 239 24.0 41.0 0.00 0.01 0.00 75 1000.2
20260504180037 46 239 27.0 41.0 0.00 0.01 0.00 77 1000.1
20260504174535 46 257 32.0 41.0 0.00 0.01 0.00 77 1000.0
20260504173031 44 238 24.0 36.0 0.00 0.01 0.00 81 999.8
20260504171529 43 233 23.0 40.0 0.00 0.01 0.00 83 999.5
20260504110111 38 244 30.0 43.0 0.00 0.01 0.00 88 987.5
20260504100110 38 232 31.0 42.0 0.00 0.01 0.00 91 984.3
20260504081542 38 224 29.0 44.0 0.00 0.01 0.00 93 980.0